Location: Dürabuch
(48.2640°N, 11.2185°E)
Time: 18:20:59
(UTC+00:00)

CZ-2D R/B - Pass Details

Date: 22 May 2025
Orbit: 790 x 841 km, 98.8° (Epoch: 16 June)

Event Time Altitude Azimuth Distance (km) Brightness Sun altitude
Rises 02:25:11 0° 10° (N) 3,406 6.4 -8.9°
Reaches altitude 10° 02:27:37 10° 5° (N) 2,470 5.4 -8.6°
Maximum altitude 02:32:50 47° 293° (WNW) 1,103 2.7 -8.0°
Drops below altitude 10° 02:38:02 10° 221° (SW) 2,452 3.9 -7.3°
Enters shadow 02:38:22 - 220° (SW) 2,577 4.1 -7.3°
